Regional Weather Roundup
Issued by NWS

Home | Current Version | Previous Version | Text Only | Print | Product List | Glossary On
Versions: 1 2 3 4 5 6 7 8 9 10 11 12 13 14 15 16 17 18 19 20 21 22 23 24 25 26 27 28 29 30 31 32 33 34 35 36 37 38 39 40 41 42 43 44 45 46 47 48 49 50
033
ASUS43 KOAX 210010
RWRNE

WEATHER ROUNDUP FOR NEBRASKA
NATIONAL WEATHER SERVICE OMAHA NE
700 PM CDT FRI APR 20 2018

NOTES: SATELLITE DATA IS BEING USED TO AUGMENT CLOUD COVER ABOVE
       12000 FEET.
       "FAIR" INDICATES FEW OR NO CLOUDS BELOW 12,000 FEET WITH NO
       SIGNIFICANT WEATHER AND/OR OBSTRUCTIONS TO VISIBILITY.


NEZ001>004-019>022-054>056-210100-
NEBRASKA PANHANDLE

CITY           SKY/WX    TMP DP  RH WIND       PRES   REMARKS
SCOTTSBLUFF    CLOUDY    39  37  92 SE16      30.12R WCI  30
6HR MIN TEMP:  38; 6HR MAX TEMP:  40; 6HR PCP: TRACE;

ALLIANCE       CLOUDY    38  37  97 SE21      30.13S WCI  28
6HR MIN TEMP:  33; 6HR MAX TEMP:  38; 6HR PCP:  0.25;

CHADRON        CLOUDY    42  36  79 SE12      30.18R
6HR MIN TEMP:  41; 6HR MAX TEMP:  47; 6HR PCP: TRACE;

GORDON         DRIZZLE   41  37  87 SE13G18   30.21R
6HR MIN TEMP:  37; 6HR MAX TEMP:  41; 6HR PCP:  0.29;

KIMBALL        DRIZZLE   37  36  97 SE22G30   30.08S WCI  25
SIDNEY         CLOUDY    37  33  85 SE18G28   30.11S WCI  27
6HR MIN TEMP:  33; 6HR MAX TEMP:  38; 6HR PCP:  0.09;

$$

NEZ057>060-069>072-079>082-210100-
SOUTHWEST NEBRASKA

CITY           SKY/WX    TMP DP  RH WIND       PRES   REMARKS
NORTH PLATTE   LGT RAIN  42  38  85 E9        30.23S FOG
6HR MIN TEMP:  42; 6HR MAX TEMP:  48; 6HR PCP:  0.10;

IMPERIAL       LGT RAIN  41  40  96 E15       30.16F
6HR MIN TEMP:  38; 6HR MAX TEMP:  42; 6HR PCP:  0.31;

LEXINGTON      LGT RAIN  44  38  81 NE7       30.25F
MCCOOK         CLOUDY    43  40  89 NE13      30.20R
6HR MIN TEMP:  42; 6HR MAX TEMP:  50; 6HR PCP:  0.13;

OGALLALA       LGT RAIN  40  38  91 E20       30.17F WCI  31
$$

NEZ005>010-023>029-035>040-094-210100-
NORTH CENTRAL NEBRASKA

CITY           SKY/WX    TMP DP  RH WIND       PRES   REMARKS
VALENTINE      LGT RAIN  45  39  79 SE9       30.28R
6HR MIN TEMP:  45; 6HR MAX TEMP:  50; 6HR PCP:  0.06;

AINSWORTH      DRIZZLE   46  35  67 SE3       30.28R
BROKEN BOW     LGT RAIN  46  38  73 SE8       30.26R
6HR MIN TEMP:  46; 6HR MAX TEMP:  52; 6HR PCP:  0.01;

O`NEILL        CLOUDY    52  35  51 E5        30.29R
ORD            CLOUDY    53  31  42 SE3       30.27R
6HR MIN TEMP:  50; 6HR MAX TEMP:  55;

THEDFORD       CLOUDY    43  37  79 SE7       30.26F
$$

NEZ041-046>049-061>064-073>077-083>087-210100-
SOUTH CENTRAL NEBRASKA

CITY           SKY/WX    TMP DP  RH WIND       PRES   REMARKS
GRAND ISLAND   CLOUDY    53  34  48 E6        30.26R
6HR MIN TEMP:  53; 6HR MAX TEMP:  59;

AURORA         CLOUDY    55  30  39 CALM      30.27R
HASTINGS       CLOUDY    53  33  46 E5        30.26R
6HR MIN TEMP:  53; 6HR MAX TEMP:  56;

HEBRON         CLOUDY    60  28  30 E6        30.24S
HOLDREGE       CLOUDY    48  37  65 NE10      30.22F
KEARNEY        CLOUDY    50  34  54 CALM      30.26R
YORK             N/A     55  27  33 CALM      30.26S
$$

NEZ011>018-030>034-042>045-210100-
NORTHEAST NEBRASKA

CITY           SKY/WX    TMP DP  RH WIND       PRES   REMARKS
NORFOLK        CLOUDY    53  30  41 E10       30.27S
6HR MIN TEMP:  53; 6HR MAX TEMP:  58;

ALBION         CLOUDY    55  32  41 E6        30.28R
BLAIR          CLOUDY    58  28  32 SE8       30.30S
COLUMBUS       CLOUDY    55  29  36 SE6       30.30R
FREMONT        CLOUDY    60  28  30 E6        30.31R
TEKAMAH        CLOUDY    58  28  32 E7        30.30F
6HR MIN TEMP:  56; 6HR MAX TEMP:  62;

WAYNE          CLOUDY    55  27  34 SE8       30.31F
$$

NEZ050>053-065>068-078-088>093-210100-
SOUTHEAST NEBRASKA

CITY           SKY/WX    TMP DP  RH WIND       PRES   REMARKS
LINCOLN        CLOUDY    59  25  27 E7        30.28S
6HR MIN TEMP:  59; 6HR MAX TEMP:  63;

OMAHA EPPLEY   CLOUDY    60  26  27 SE10      30.30S
6HR MIN TEMP:  58; 6HR MAX TEMP:  63;

BEATRICE       CLOUDY    60  29  30 E12       30.24F
FALLS CITY     CLOUDY    59  24  26 E9        30.27R
6HR MIN TEMP:  59; 6HR MAX TEMP:  64;

NEBRASKA CITY  CLOUDY    59  30  32 SE7       30.29R
PLATTSMOUTH    CLOUDY    59  28  31 E9        30.30R
$$

NEZ044-045-051>053-067-210100-
OMAHA AREA

CITY           SKY/WX    TMP DP  RH WIND       PRES   REMARKS
OMAHA EPPLEY   CLOUDY    60  26  27 SE10      30.30S
6HR MIN TEMP:  58; 6HR MAX TEMP:  63;

BLAIR          CLOUDY    58  28  32 SE8       30.30S
FREMONT        CLOUDY    60  28  30 E6        30.31R
MILLARD        CLOUDY    60  30  32 E6        30.30R
OFFUTT AFB     CLOUDY    58  29  32 E7        30.29R
PLATTSMOUTH    CLOUDY    59  28  31 E9        30.30R
$$




USA.gov is the U.S. government's official web portal to all federal, state and local government web resources and services.